[Date Prev][Date Next][Thread Prev][Thread Next] - [Date Index][Thread Index][Author Index]
2 Line ISS Keps 11-18
- Subject: [sarex] 2 Line ISS Keps 11-18
- From: "Dave Larsen PhD" <doc@xxxxxxxxxxx>
- Date: Sun, 18 Nov 2007 04:30:54 -0800
ISS
1 25544U 98067A 07322.39853913 .00021536 00000-0 13729-3 0 3698
2 25544 051.6409 028.8063 0001860 173.1576 291.0603 15.76347226515105In Memory of Art
----
Sent via sarex@amsat.org. Opinions expressed are those of the author.
Not an AMSAT member? Join now to support the amateur satellite program!
Subscription settings: http://amsat.org/mailman/listinfo/sarex
AMSAT Home